Location: Arrington
(35.8681°N, 86.7092°W)
Time: 04:09:28
(UTC+00:00)

ATLAS 2AS CENTAUR R/B - Pass Details

Date: 29 February 2020
Orbit: 929 x 1283 km, 63.7° (Epoch: 03 April)

Event Time Altitude Azimuth Distance (km) Brightness Sun altitude
Rises 02:10:28 0° 213° (SSW) 4,138 6.0 -31.0°
Reaches altitude 10° 02:13:11 10° 214° (SW) 3,208 5.4 -31.5°
Maximum altitude 02:21:03 80° 302° (WNW) 1,300 3.0 -33.0°
Enters shadow 02:23:28 50° 19° (NNE) 1,590 3.4 -33.5°
